User: anonymous   Login
Location: Wells
(51.2093°N, 2.6446°W)
Time: 11:59:43
(UTC+00:00)
Language:

RS-44 - Orbit

View from above orbital plane
View from above orbital plane
View from above satellite
View from above satellite

Ground track
Ground track

The orbit is defined by the following mean orbital elements,

1 44909U          26073.87613032 +.00000000 +00000-0 +39209-4 0 00004
2 44909  82.5212  42.3670 0217707   5.2108 355.1186 12.79747577    05
Epoch (UTC): 14 March 2026 21:01:37
Eccentricity: 0.0217707
inclination: 82.5212°
perigee height: 1174 km
apogee height: 1511 km
right ascension of ascending node: 42.3670°
argument of perigee: 5.2108°
revolutions per day: 12.79747577
mean anomaly at epoch: 355.1186°

The dashed part of the orbit path shows where the satellite is in the earth's shadow,  

DLR